sat.trackr.live / text

‹ back to catalog

MISR-C-1

NORAD 68628 · 2026-074B

PAYLOAD ACTIVE UNKNOWN

§ Identity

Operator
Country
US
Launch date
2026-04-07
Launch site
AFWTR
Launch vehicle
Mass (kg)
RCS (m²)

External: N2YO · Heavens-Above · Gunter

§ Orbital elements

Epoch: 2026-05-25T00:50:44.640960Z

Period
94.49 min
Inclination
60.0224°
Eccentricity
0.0021911
Mean motion
15.23903988 rev/d
Perigee alt
479.0 km
Apogee alt
509.1 km
Semi-major
6,872.2 km
B*
3.5324e-4
RAAN
267.1713°
Arg perigee
359.3827°
Mean anomaly
0.7223°
Rev number
724

§ Raw data

MISR-C-11 68628U 26074B   26145.03523890  .00008379  00000+0  35324-3 0  99932 68628  60.0224 267.1713 0021911 359.3827   0.7223 15.23903988  7249

JSON: /api/v1/satellites/68628 · /tle

For live sub-satellite position, see the globe view (requires WebGL).

§ Visibility from observer

Set your observer location to see the next 7 days of passes ≥ 10°. The values pass through the URL so the page stays shareable.

No JS? Fill the form by hand. The geolocation button needs JavaScript.